Temperature
16 16 16 16 16 16 16 16 16 16 16 16 16 16 16 16 16 16 16 16 16 16 16 16 16 16 15 15 15 15 15 15 15 15 15 15 15 15 15 15 14 14 14
16 16 16 16 16 16 16 16 16 16 15 15 16 16 16 16 16 16 16 16 16 15 15 16 15 15 15 15 15 15 15 15 15 15 15 15 15 15 14 14 14 14 14
15 16 16 16 15 15 15 15 15 15 15 15 15 15 15 15 15 15 15 15 15 15 15 15 15 15 15 15 15 15 15 15 15 14 14 14 14 14 14 14 14 14 14
15 15 15 15 15 15 15 15 15 15 15 15 15 15 15 15 15 15 15 15 15 15 15 15 15 15 15 15 15 15 15 14 14 14 14 14 14 14 14 14 14 13 13
15 15 15 15 15 15 15 15 15 15 15 15 15 15 15 15 15 15 15 15 15 15 15 15 15 15 15 15 15 15 14 14 14 14 13 13 14 14 13 13 13 13 13
14 14 14 14 14 14 14 15 15 14 15 15 15 15 15 15 15 15 15 15 15 15 15 15 15 15 15 15 15 14 14 14 14 13 13 13 13 13 13 13 13 13 13
14 14 14 14 14 14 14 14 14 15 15 15 15 15 15 15 15 15 15 15 15 15 15 15 15 15 15 14 14 14 14 13 13 13 13 13 13 13 13 13 13 13 13
13 13 13 13 14 14 14 14 14 14 14 14 14 14 15 15 15 15 15 15 15 15 15 15 15 15 14 14 14 14 13 13 13 13 13 13 13 13 13 13 13 13 13
13 13 13 13 13 13 13 13 13 14 14 14 14 14 14 14 14 14 14 14 14 15 15 14 15 14 14 14 14 13 13 13 13 13 13 12 12 12 12 12 12 12 12
12 12 12 12 12 13 13 13 13 13 14 14 14 14 14 14 14 14 14 14 14 14 14 14 14 14 14 14 13 13 13 12 13 13 12 12 12 12 12 12 12 12 12
12 12 12 12 12 12 12 12 12 13 13 13 13 13 13 13 13 13 13 13 14 14 14 14 13 13 13 13 13 13 13 12 12 12 12 12 12 12 12 12 12 12 12
11 11 11 11 11 12 12 12 12 12 12 13 13 13 13 13 13 13 13 13 13 13 13 13 13 13 13 13 13 12 12 12 12 12 12 12 12 12 12 12 12 12 12
10 11 11 11 11 11 11 11 12 12 12 12 12 12 12 12 12 12 12 12 12 12 12 12 12 12 12 12 12 12 12 12 12 12 12 12 12 12 11 12 11 11 11
10 10 10 10 10 11 11 11 11 11 11 12 12 12 12 12 12 12 12 12 12 12 12 12 12 12 12 12 12 12 12 12 12 12 12 12 12 11 11 11 11 11 11
9 10 10 10 10 10 10 10 11 11 11 11 11 11 11 11 11 11 11 11 11 11 12 12 12 11 11 11 11 11 11 11 11 11 11 11 11 11 11 11 11 11 11
9 9 9 9 9 10 10 10 10 10 10 10 11 11 11 11 11 11 11 11 11 11 11 11 11 11 11 11 11 11 11 11 11 11 11 11 11 11 11 11 11 11 11
9 9 9 9 9 9 9 9 9 9 9 10 10 10 10 11 11 11 11 11 11 11 11 11 11 11 10 10 10 10 10 10 10 10 10 11 11 11 11 11 11 11 10
8 8 8 8 8 8 9 9 9 9 9 9 9 10 10 10 10 10 10 10 10 10 10 10 10 10 10 10 10 10 10 10 10 10 10 10 10 11 11 11 10 10 10
8 8 8 8 8 8 8 8 8 8 8 9 9 9 9 9 10 10 10 10 10 10 10 10 10 10 10 10 10 10 10 10 10 10 10 10 10 10 10 10 10 10 10
8 7 8 8 8 8 8 8 8 8 8 8 8 9 9 9 9 9 9 10 10 10 9 9 9 9 9 9 9 9 9 9 9 9 10 10 10 10 10 10 10 10 10
7 7 7 7 7 7 7 7 7 7 7 8 8 8 8 8 9 9 9 9 9 9 9 9 9 9 9 9 9 9 9 9 9 9 9 9 9 9 9 9 9 10 10
6 7 7 7 7 7 7 7 7 7 7 7 7 8 8 8 8 8 8 9 9 8 8 8 8 8 8 8 8 8 8 8 8 8 9 9 9 9 9 9 9 9 9
6 6 6 6 6 6 6 6 6 7 7 7 7 7 7 7 7 8 8 8 8 8 8 8 8 8 8 8 8 8 8 7 7 8 8 8 8 8 8 9 9 9 9
6 6 6 6 6 6 6 6 6 6 6 6 6 6 7 7 7 7 7 8 7 7 7 7 7 8 8 8 8 8 8 8 7 7 7 8 8 8 8 8 8 8 9
5 5 5 5 5 5 5 5 5 5 5 6 6 6 6 6 6 7 7 7 7 7 7 7 7 7 7 7 7 7 7 7 7 7 7 7 7 7 8 8 8 8 8
5 5 5 5 5 5 5 5 5 5 5 5 5 5 5 5 6 6 6 6 7 7 7 7 7 7 7 7 7 7 7 7 7 7 7 6 7 7 7 7 8 8 8
Wind_Speed
5 7 8 7 6 6 6 6 6 5 5 6 6 6 6 7 8 8 8 9 8 8 9 9 9 9 9 10 10 10 11 11 11 11 12 11 11 10 9 9 10 10 10
6 8 8 7 6 6 6 6 6 5 5 5 5 5 6 6 7 7 7 8 8 8 8 8 8 9 9 9 10 10 10 9 9 10 10 10 10 10 10 9 9 9 10
7 8 7 6 6 5 5 6 5 5 5 4 4 4 5 6 6 6 6 7 7 7 7 8 8 8 8 9 9 8 8 8 7 7 7 7 9 9 9 9 9 9 9
7 7 6 6 5 5 4 5 5 4 5 4 3 4 5 5 5 5 6 6 6 6 6 7 7 8 8 8 8 7 7 6 6 5 5 6 7 8 8 8 8 8 8
6 7 6 6 5 4 3 3 4 3 3 3 3 3 4 5 5 5 6 6 6 6 6 7 7 7 7 7 7 6 5 4 4 4 5 7 7 7 7 7 7 7 7
5 6 6 5 4 3 3 2 2 2 2 3 3 3 4 4 4 5 5 6 6 6 6 6 6 6 6 6 6 5 4 3 3 3 4 6 7 7 6 6 6 6 6
4 6 6 4 3 2 2 1 1 1 2 2 2 2 3 4 5 5 5 6 6 7 6 6 6 6 5 5 5 4 3 2 2 3 4 6 7 7 6 5 6 6 5
4 5 5 3 3 2 1 1 1 0 2 2 2 2 3 4 5 5 5 6 5 6 6 5 6 6 5 5 5 3 1 1 1 3 4 6 7 6 5 5 5 5 4
4 4 4 3 2 1 0 1 1 2 3 3 3 2 2 3 4 5 5 5 5 5 5 5 6 6 6 5 4 3 1 1 1 2 3 5 6 5 4 4 4 3 3
3 3 2 2 2 1 0 1 1 2 4 4 3 3 2 3 4 5 5 5 5 4 5 6 6 5 5 5 4 3 2 1 1 2 4 4 5 4 4 4 3 2 2
2 1 1 1 1 1 1 0 0 2 4 4 4 3 3 3 3 4 5 5 5 4 5 6 6 6 5 5 4 3 2 2 2 2 4 5 5 4 4 3 2 2 1
1 1 1 0 0 1 1 1 0 1 3 5 4 4 3 3 3 3 4 5 5 5 5 6 6 6 5 4 4 4 3 3 2 3 4 4 4 4 4 3 2 2 1
1 2 2 1 1 1 1 1 1 1 2 3 4 4 3 3 3 3 3 4 4 5 4 5 5 5 4 3 3 3 3 2 3 3 4 5 4 4 4 3 3 3 2
1 1 2 2 2 1 1 1 1 1 2 1 3 3 2 2 2 2 2 3 3 3 4 3 3 4 4 4 4 4 3 2 3 4 5 5 5 5 5 4 4 4 4
1 1 2 2 2 1 1 1 1 1 2 2 2 3 3 2 2 2 2 2 2 2 2 2 3 3 3 3 3 3 3 3 3 3 5 6 6 6 6 5 5 6 5
2 1 1 2 2 1 1 1 1 1 2 2 2 2 2 2 2 2 3 2 2 3 2 2 3 3 2 2 2 2 2 3 3 4 5 6 7 7 7 7 7 7 7
2 1 1 2 2 2 2 2 1 1 1 2 2 2 2 3 3 2 3 3 2 2 2 1 1 2 3 2 2 2 2 2 3 3 4 5 6 7 8 8 8 8 7
2 1 1 2 3 2 2 2 2 2 2 2 2 2 3 3 3 3 3 2 2 2 1 2 2 2 2 2 2 2 2 2 3 3 3 4 5 5 7 8 8 8 8
2 2 1 1 2 2 2 2 2 2 1 2 2 2 3 3 3 3 3 2 3 2 1 2 2 2 2 2 2 2 2 2 3 3 3 4 5 5 5 7 8 9 8
2 2 1 1 1 1 1 1 1 2 2 2 2 2 2 2 2 2 2 3 3 2 2 1 2 1 2 2 2 2 2 3 3 3 4 3 4 5 5 5 6 7 9
2 2 1 1 1 1 1 1 1 2 2 2 2 1 2 2 2 2 3 3 3 3 3 3 2 1 2 2 1 2 3 3 4 4 3 3 4 5 5 5 5 6 6
2 2 2 1 1 1 1 1 2 2 2 2 1 1 2 2 2 3 3 3 3 3 3 3 3 2 2 2 2 1 2 2 3 4 4 4 4 3 4 6 5 5 5
2 2 2 2 1 1 1 1 1 1 1 1 1 1 2 3 3 2 3 3 3 3 4 4 4 4 4 3 2 2 2 3 2 2 4 4 4 4 4 4 5 5 6
2 2 2 2 1 1 1 1 1 2 2 3 2 2 2 2 2 2 2 3 3 3 4 4 3 3 4 4 2 2 2 2 2 2 2 3 4 5 5 5 5 5 6
2 1 2 2 1 1 1 2 2 2 2 1 1 1 1 1 2 2 2 2 3 3 3 4 3 3 4 4 3 2 2 2 2 2 4 3 3 4 4 4 4 4 5
2 0 1 1 1 1 1 2 1 2 2 2 2 1 1 1 1 1 1 1 2 2 3 4 3 4 4 4 3 3 3 3 3 3 4 4 4 4 4 3 4 4 4
Wind_Direction
85 92 88 73 68 62 59 61 74 92 98 102 101 107 114 114 110 105 104 104 104 107 111 110 107 103 100 93 89 94 96 93 90 90 88 86 87 88 87 87 86 80 80
91 97 90 76 70 66 61 59 70 81 88 95 103 106 119 121 120 117 114 109 108 108 113 115 113 110 104 97 93 96 98 99 99 96 92 89 90 89 87 86 87 83 81
90 98 95 79 69 67 64 58 67 77 84 89 99 107 123 127 127 125 123 120 117 114 114 115 113 112 109 104 101 101 100 100 98 97 95 98 96 92 89 87 88 88 82
89 94 101 89 76 66 66 62 60 79 79 85 98 106 124 126 126 129 130 128 124 119 119 120 118 115 113 111 109 108 104 97 92 94 96 98 98 95 92 88 91 89 83
85 87 100 98 88 77 71 76 61 77 90 86 96 108 123 132 133 133 131 130 127 124 124 124 124 122 120 117 116 117 114 98 77 89 90 92 95 98 96 91 95 92 86
86 86 103 107 102 93 80 81 67 74 115 106 107 111 127 137 142 137 135 136 130 126 126 130 129 127 125 123 120 125 120 101 81 93 96 100 103 105 101 95 97 95 89
81 86 107 107 109 106 100 88 87 79 145 134 122 117 131 141 140 139 135 143 143 139 134 133 140 136 135 132 125 122 122 101 102 78 80 96 105 110 112 105 102 99 90
68 86 101 92 92 106 120 123 191 181 184 155 147 130 140 150 154 147 141 139 143 150 148 143 144 148 149 140 133 130 130 126 100 94 87 97 112 113 117 115 108 104 95
61 82 96 103 89 58 38 205 220 222 200 176 163 159 160 164 162 160 156 153 142 147 157 156 151 157 157 150 149 157 164 191 95 116 106 101 117 124 125 118 118 112 101
54 68 96 103 117 145 216 238 233 229 205 181 173 168 169 167 171 167 161 159 152 149 163 166 160 161 164 164 177 193 189 219 174 124 114 122 133 140 140 128 122 133 128
31 61 73 88 51 21 336 215 220 249 209 181 173 163 162 161 159 163 165 166 167 161 163 164 167 169 168 174 184 192 187 179 148 128 121 138 151 161 161 154 145 138 147
349 349 30 16 78 5 339 27 236 271 207 186 174 173 172 149 154 156 162 164 170 171 171 171 172 179 181 179 191 195 194 180 163 134 134 151 166 180 185 185 190 193 194
302 339 334 350 11 9 351 333 345 322 232 194 187 189 158 140 147 145 136 156 166 174 174 183 187 189 184 177 184 193 203 188 159 145 149 165 180 198 203 205 214 222 227
297 303 330 348 335 345 335 308 304 288 262 215 204 177 165 158 160 166 165 179 182 186 188 193 188 185 189 193 187 187 187 180 159 154 159 173 187 204 216 221 227 231 235
301 315 326 313 289 304 293 284 288 259 270 227 207 198 181 171 175 177 172 179 183 192 195 196 191 184 191 190 186 183 181 185 185 178 174 187 194 208 222 231 233 237 240
278 261 298 298 290 292 281 274 277 284 287 248 212 209 196 183 178 177 176 179 184 192 202 223 202 181 188 178 188 189 191 192 196 195 186 193 200 208 220 231 239 245 244
271 275 274 293 304 301 295 288 306 287 271 257 223 208 197 194 183 177 179 178 181 191 204 217 220 175 183 186 197 200 191 197 199 201 196 194 201 211 218 229 236 245 244
282 279 273 300 310 302 308 302 306 298 288 265 230 220 201 203 185 168 174 175 172 179 182 210 209 208 190 187 199 224 209 202 208 205 199 198 197 206 218 228 235 241 242
305 281 248 257 292 295 308 301 303 296 287 282 239 230 210 191 185 170 176 177 168 171 194 228 215 209 198 197 207 225 234 234 228 221 213 206 203 202 208 220 232 236 237
302 289 263 241 257 293 293 316 321 302 292 282 248 224 203 188 188 169 172 183 170 169 190 202 216 220 217 196 220 247 255 253 241 230 228 217 207 204 208 216 219 228 231
305 307 283 256 267 303 270 245 256 263 276 276 257 230 201 204 198 189 185 189 186 188 196 193 201 191 228 194 210 265 279 253 241 232 221 218 223 212 210 216 215 214 219
309 310 292 257 262 268 263 258 252 254 255 255 260 228 212 211 213 215 188 195 199 194 200 203 196 207 230 216 206 233 281 279 252 244 228 224 228 220 221 218 215 211 207
313 310 297 277 267 251 254 254 299 289 276 269 262 204 210 222 214 205 204 194 202 200 202 211 209 209 221 239 213 192 204 238 273 247 238 229 227 228 233 213 209 215 211
313 310 293 272 264 239 217 233 228 254 264 283 260 234 213 224 222 208 206 206 206 212 210 222 223 219 218 227 242 238 237 219 229 283 268 241 232 231 225 216 212 215 212
326 306 287 276 257 225 205 226 236 260 274 296 276 229 218 229 213 206 219 208 209 217 219 228 234 221 227 231 239 246 249 252 244 233 260 256 257 244 229 219 207 208 209
346 282 251 280 288 244 224 242 235 265 281 282 272 232 228 243 229 198 238 223 210 223 228 225 235 225 229 234 241 242 231 227 228 232 245 251 257 256 240 229 216 207 210
Height
1501 1501 1502 1503 1504 1505 1506 1507 1508 1509 1510 1511 1512 1513 1514 1515 1516 1517 1517 1518 1519 1520 1520 1521 1522 1522 1523 1523 1524 1525 1525 1525 1526 1526 1527 1527 1527 1528 1528 1528 1529 1529 1529
1500 1501 1502 1503 1504 1505 1506 1507 1508 1509 1510 1511 1512 1513 1514 1515 1516 1517 1517 1518 1519 1520 1520 1521 1522 1522 1523 1523 1524 1525 1525 1526 1526 1527 1527 1528 1528 1528 1529 1529 1529 1529 1530
1500 1500 1501 1502 1503 1505 1505 1506 1507 1509 1510 1511 1512 1513 1514 1515 1515 1516 1517 1518 1518 1519 1520 1521 1521 1522 1523 1523 1524 1525 1526 1526 1527 1527 1527 1528 1528 1529 1529 1529 1529 1529 1530
1500 1500 1500 1501 1503 1504 1505 1506 1507 1508 1509 1510 1511 1512 1513 1514 1515 1515 1516 1517 1518 1519 1519 1520 1521 1522 1523 1523 1524 1525 1526 1526 1527 1527 1527 1528 1528 1529 1529 1529 1529 1529 1529
1499 1499 1500 1501 1502 1503 1504 1505 1506 1507 1508 1509 1510 1511 1512 1513 1514 1515 1515 1516 1517 1518 1519 1520 1520 1521 1522 1523 1524 1524 1525 1526 1526 1527 1527 1528 1528 1529 1529 1529 1529 1529 1529
1499 1499 1499 1500 1501 1502 1503 1504 1505 1506 1507 1508 1509 1510 1511 1512 1513 1514 1514 1515 1516 1517 1518 1519 1520 1520 1521 1522 1523 1524 1525 1525 1526 1526 1527 1527 1527 1528 1528 1528 1528 1528 1528
1498 1498 1499 1499 1500 1501 1502 1503 1504 1505 1506 1506 1507 1508 1509 1510 1511 1512 1513 1514 1515 1515 1516 1518 1519 1519 1520 1521 1522 1523 1524 1525 1525 1526 1526 1526 1527 1527 1527 1528 1528 1528 1528
1498 1497 1497 1498 1499 1500 1501 1501 1502 1503 1504 1505 1506 1507 1508 1509 1510 1511 1512 1512 1513 1514 1515 1516 1517 1518 1519 1520 1521 1522 1523 1524 1524 1525 1525 1526 1526 1526 1527 1527 1527 1527 1527
1497 1496 1496 1497 1497 1498 1499 1499 1500 1501 1502 1503 1504 1505 1506 1507 1508 1509 1510 1511 1512 1513 1514 1515 1516 1516 1517 1518 1519 1520 1521 1522 1523 1523 1524 1524 1525 1525 1526 1526 1526 1526 1526
1495 1495 1495 1495 1495 1496 1496 1497 1498 1499 1500 1501 1502 1503 1504 1505 1507 1508 1509 1509 1510 1511 1512 1513 1514 1515 1515 1516 1517 1518 1519 1520 1521 1521 1522 1523 1523 1524 1524 1524 1525 1525 1525
1493 1494 1494 1493 1493 1494 1494 1495 1496 1497 1498 1499 1500 1501 1502 1503 1504 1505 1506 1507 1508 1509 1510 1511 1512 1513 1514 1514 1515 1516 1517 1518 1519 1519 1520 1521 1522 1522 1522 1523 1523 1523 1523
1491 1491 1491 1492 1491 1491 1492 1492 1493 1494 1495 1496 1497 1498 1500 1501 1502 1503 1504 1505 1506 1507 1508 1508 1509 1510 1511 1512 1513 1514 1515 1516 1516 1517 1518 1519 1519 1520 1520 1521 1521 1521 1521
1490 1489 1489 1489 1489 1489 1489 1490 1490 1491 1492 1493 1495 1496 1497 1498 1499 1500 1501 1502 1503 1504 1505 1505 1506 1507 1508 1509 1510 1511 1512 1513 1514 1514 1515 1516 1517 1518 1518 1518 1519 1519 1519
1488 1487 1487 1487 1486 1486 1486 1487 1488 1488 1489 1490 1492 1493 1494 1495 1496 1497 1498 1499 1500 1501 1502 1503 1503 1504 1505 1507 1508 1508 1509 1510 1511 1512 1513 1514 1514 1515 1515 1516 1516 1516 1517
1485 1484 1484 1484 1484 1484 1484 1484 1485 1485 1486 1487 1488 1489 1491 1492 1493 1494 1495 1496 1497 1499 1499 1500 1501 1501 1502 1504 1505 1505 1506 1507 1508 1509 1510 1511 1511 1512 1513 1513 1513 1514 1514
1482 1482 1481 1481 1481 1481 1481 1481 1481 1481 1482 1484 1485 1486 1487 1489 1490 1491 1492 1493 1495 1495 1496 1497 1498 1498 1499 1500 1501 1502 1503 1504 1504 1505 1506 1507 1508 1509 1509 1510 1511 1511 1511
1480 1479 1479 1478 1478 1478 1478 1478 1479 1479 1480 1480 1482 1483 1484 1485 1486 1488 1489 1490 1491 1492 1493 1494 1495 1495 1495 1497 1498 1499 1500 1501 1501 1502 1503 1503 1504 1505 1506 1506 1507 1508 1508
1477 1476 1476 1476 1475 1475 1475 1475 1475 1475 1476 1477 1478 1479 1481 1482 1483 1484 1485 1487 1488 1489 1490 1491 1491 1492 1492 1493 1494 1495 1496 1497 1497 1498 1499 1500 1500 1501 1502 1502 1503 1504 1505
1473 1473 1472 1472 1472 1472 1472 1472 1472 1472 1473 1474 1475 1476 1477 1478 1479 1480 1481 1483 1484 1485 1486 1487 1488 1488 1488 1489 1490 1491 1492 1493 1493 1494 1495 1495 1496 1496 1497 1498 1500 1500 1501
1470 1470 1469 1469 1468 1468 1469 1469 1469 1470 1470 1470 1471 1472 1473 1474 1475 1476 1478 1479 1481 1482 1483 1484 1484 1485 1486 1485 1486 1487 1488 1489 1489 1490 1491 1491 1492 1493 1494 1494 1496 1496 1497
1467 1466 1466 1465 1465 1465 1465 1465 1465 1465 1466 1467 1467 1468 1470 1471 1472 1473 1474 1475 1477 1478 1479 1480 1481 1481 1482 1482 1483 1483 1483 1484 1485 1486 1487 1487 1488 1489 1489 1490 1491 1492 1493
1463 1463 1462 1462 1462 1461 1462 1463 1463 1462 1462 1463 1464 1465 1466 1467 1468 1470 1470 1471 1472 1474 1475 1476 1477 1478 1479 1479 1479 1479 1479 1481 1481 1482 1483 1483 1484 1485 1485 1486 1487 1488 1488
1460 1459 1459 1458 1458 1458 1459 1460 1460 1460 1460 1460 1461 1461 1463 1464 1465 1466 1466 1467 1468 1470 1471 1472 1473 1474 1475 1476 1476 1477 1476 1476 1476 1477 1478 1479 1480 1480 1481 1482 1483 1483 1484
1457 1456 1456 1456 1455 1455 1456 1456 1457 1457 1456 1456 1457 1458 1459 1460 1461 1462 1462 1463 1464 1466 1467 1468 1470 1471 1472 1471 1472 1472 1474 1473 1474 1472 1473 1474 1475 1476 1477 1478 1478 1479 1480
1454 1454 1453 1453 1453 1453 1453 1454 1454 1454 1453 1453 1454 1454 1455 1456 1457 1458 1458 1459 1460 1461 1463 1464 1465 1467 1468 1467 1468 1468 1468 1469 1469 1469 1469 1470 1471 1471 1472 1473 1474 1475 1475
1451 1451 1450 1450 1449 1450 1450 1451 1451 1451 1450 1450 1450 1451 1451 1452 1453 1453 1454 1455 1456 1457 1459 1460 1461 1462 1463 1463 1464 1465 1465 1465 1465 1465 1465 1465 1466 1466 1468 1468 1469 1469 1470